Time,TemperatureF,DewpointF,PressureIn,WindDirection,WindDirectionDegrees,WindSpeedMPH,WindSpeedGustMPH,Humidity,HourlyPrecipIn,Conditions,Clouds,dailyrainin,SolarRadiationWatts/m^2,SoftwareType,DateUTC
2013-10-07 00:00:00,53.0,47.0,-100.00,South,171,2.0,-999.0,81,0.00,,,0.00,0.000000,,2013-10-07 05:00:00,
2013-10-07 00:43:00,53.0,47.0,-100.00,South,171,2.0,-999.0,81,0.00,,,0.00,0.000000,,2013-10-07 05:43:00,
2013-10-07 00:52:00,53.0,47.0,-100.00,South,171,2.0,-999.0,81,0.00,,,0.00,0.000000,,2013-10-07 05:52:00,
2013-10-07 01:00:00,52.0,46.0,-100.00,SSE,157,2.0,-999.0,81,0.00,,,0.00,1.000000,,2013-10-07 06:00:00,
2013-10-07 01:42:00,52.0,46.0,-100.00,SSE,157,2.0,-999.0,81,0.00,,,0.00,1.000000,,2013-10-07 06:42:00,
2013-10-07 01:53:00,52.0,46.0,-100.00,SSE,157,2.0,-999.0,81,0.00,,,0.00,1.000000,,2013-10-07 06:53:00,
2013-10-07 02:00:00,52.0,46.0,-100.00,South,172,1.0,-999.0,82,0.00,,,0.00,0.000000,,2013-10-07 07:00:00,
2013-10-07 02:42:00,52.0,46.0,-100.00,South,172,1.0,-999.0,82,0.00,,,0.00,0.000000,,2013-10-07 07:42:00,
2013-10-07 02:52:00,52.0,46.0,-100.00,South,172,1.0,-999.0,82,0.00,,,0.00,0.000000,,2013-10-07 07:52:00,
2013-10-07 03:00:00,51.0,46.0,-100.00,South,180,0.0,-999.0,83,0.00,,,0.00,0.000000,,2013-10-07 08:00:00,
2013-10-07 03:42:00,51.0,46.0,-100.00,South,180,0.0,-999.0,83,0.00,,,0.00,0.000000,,2013-10-07 08:42:00,
2013-10-07 03:52:00,51.0,46.0,-100.00,South,180,0.0,-999.0,83,0.00,,,0.00,0.000000,,2013-10-07 08:52:00,
2013-10-07 05:00:00,49.0,45.0,-100.00,SSE,152,2.0,-999.0,85,0.00,,,0.00,1.000000,,2013-10-07 10:00:00,
2013-10-07 05:43:00,49.0,45.0,-100.00,SSE,152,2.0,-999.0,85,0.00,,,0.00,1.000000,,2013-10-07 10:43:00,
2013-10-07 05:53:00,49.0,45.0,-100.00,SSE,152,2.0,-999.0,85,0.00,,,0.00,1.000000,,2013-10-07 10:53:00,
2013-10-07 06:00:00,47.0,44.0,-100.00,South,183,1.0,-999.0,89,0.00,,,0.00,1.000000,,2013-10-07 11:00:00,
2013-10-07 06:42:00,47.0,44.0,-100.00,South,183,1.0,-999.0,89,0.00,,,0.00,1.000000,,2013-10-07 11:42:00,
2013-10-07 06:52:00,47.0,44.0,-100.00,South,183,1.0,-999.0,89,0.00,,,0.00,1.000000,,2013-10-07 11:52:00,
2013-10-07 07:00:00,49.0,43.0,-100.00,SE,145,1.0,-999.0,82,0.00,,,0.00,0.000000,,2013-10-07 12:00:00,
2013-10-07 07:43:00,49.0,43.0,-100.00,SE,145,1.0,-999.0,82,0.00,,,0.00,0.000000,,2013-10-07 12:43:00,
2013-10-07 07:52:00,49.0,43.0,-100.00,SE,145,1.0,-999.0,82,0.00,,,0.00,0.000000,,2013-10-07 12:52:00,
2013-10-07 08:00:00,48.0,41.0,-100.00,SSE,167,1.0,-999.0,78,0.00,,,0.00,13.000000,,2013-10-07 13:00:00,
2013-10-07 08:42:00,48.0,41.0,-100.00,SSE,167,1.0,-999.0,78,0.00,,,0.00,13.000000,,2013-10-07 13:42:00,
2013-10-07 08:52:00,48.0,41.0,-100.00,SSE,167,1.0,-999.0,78,0.00,,,0.00,13.000000,,2013-10-07 13:52:00,
2013-10-07 10:00:00,62.0,42.0,-100.00,NW,306,1.0,-999.0,48,0.00,,,0.00,457.000000,,2013-10-07 15:00:00,
2013-10-07 10:43:00,62.0,42.0,-100.00,NW,306,1.0,-999.0,48,0.00,,,0.00,457.000000,,2013-10-07 15:43:00,
2013-10-07 10:53:00,62.0,42.0,-100.00,NW,306,1.0,-999.0,48,0.00,,,0.00,457.000000,,2013-10-07 15:53:00,
2013-10-07 11:00:00,66.0,41.0,-100.00,NW,304,3.0,-999.0,40,0.00,,,0.00,626.000000,,2013-10-07 16:00:00,
2013-10-07 11:43:00,66.0,41.0,-100.00,NW,304,3.0,-999.0,40,0.00,,,0.00,626.000000,,2013-10-07 16:43:00,
2013-10-07 11:53:00,66.0,41.0,-100.00,NW,304,3.0,-999.0,40,0.00,,,0.00,626.000000,,2013-10-07 16:53:00,
2013-10-07 12:00:00,67.0,37.0,-100.00,WNW,299,3.0,-999.0,33,0.00,,,0.00,736.000000,,2013-10-07 17:00:00,
2013-10-07 12:42:00,67.0,37.0,-100.00,WNW,299,3.0,-999.0,33,0.00,,,0.00,736.000000,,2013-10-07 17:42:00,
2013-10-07 12:53:00,67.0,37.0,-100.00,WNW,299,3.0,-999.0,33,0.00,,,0.00,736.000000,,2013-10-07 17:53:00,
2013-10-07 13:00:00,69.0,42.0,-100.00,NW,305,2.0,-999.0,37,0.00,,,0.00,784.000000,,2013-10-07 18:00:00,
2013-10-07 13:42:00,69.0,42.0,-100.00,NW,305,2.0,-999.0,37,0.00,,,0.00,784.000000,,2013-10-07 18:42:00,
2013-10-07 13:52:00,69.0,42.0,-100.00,NW,305,2.0,-999.0,37,0.00,,,0.00,784.000000,,2013-10-07 18:52:00,
2013-10-07 14:00:00,71.0,40.0,-100.00,WNW,284,1.0,-999.0,33,0.00,,,0.00,770.000000,,2013-10-07 19:00:00,
2013-10-07 14:42:00,71.0,40.0,-100.00,WNW,284,1.0,-999.0,33,0.00,,,0.00,770.000000,,2013-10-07 19:42:00,
2013-10-07 14:53:00,71.0,40.0,-100.00,WNW,284,1.0,-999.0,33,0.00,,,0.00,770.000000,,2013-10-07 19:53:00,
2013-10-07 16:00:00,73.0,37.0,-100.00,WNW,294,1.0,-999.0,27,0.00,,,0.00,559.000000,,2013-10-07 21:00:00,
2013-10-07 16:43:00,73.0,37.0,-100.00,WNW,294,1.0,-999.0,27,0.00,,,0.00,559.000000,,2013-10-07 21:43:00,
2013-10-07 16:55:00,73.0,37.0,-100.00,WNW,294,1.0,-999.0,27,0.00,,,0.00,559.000000,,2013-10-07 21:55:00,
2013-10-07 17:00:00,74.0,41.0,-100.00,WNW,294,2.0,-999.0,31,0.00,,,0.00,381.000000,,2013-10-07 22:00:00,
2013-10-07 17:43:00,74.0,41.0,-100.00,WNW,294,2.0,-999.0,31,0.00,,,0.00,381.000000,,2013-10-07 22:43:00,
2013-10-07 17:53:00,74.0,41.0,-100.00,WNW,294,2.0,-999.0,31,0.00,,,0.00,381.000000,,2013-10-07 22:53:00,
2013-10-07 18:00:00,72.0,44.0,-100.00,WNW,297,1.0,-999.0,36,0.00,,,0.00,24.000000,,2013-10-07 23:00:00,
2013-10-07 18:42:00,72.0,44.0,-100.00,WNW,297,1.0,-999.0,36,0.00,,,0.00,24.000000,,2013-10-07 23:42:00,
2013-10-07 18:52:00,72.0,44.0,-100.00,WNW,297,1.0,-999.0,36,0.00,,,0.00,24.000000,,2013-10-07 23:52:00,
2013-10-07 19:00:00,71.0,47.0,-100.00,ESE,104,1.0,-999.0,43,0.00,,,0.00,8.000000,,2013-10-08 00:00:00,
2013-10-07 19:42:00,71.0,47.0,-100.00,ESE,104,1.0,-999.0,43,0.00,,,0.00,8.000000,,2013-10-08 00:42:00,
2013-10-07 19:52:00,71.0,47.0,-100.00,ESE,104,1.0,-999.0,43,0.00,,,0.00,8.000000,,2013-10-08 00:52:00,